Regional Weather Roundup
Issued by NWS

Home | Current Version | Previous Version | Text Only | Print | Product List | Glossary Off
Versions: 1 2 3 4 5 6 7 8 9 10 11 12 13 14 15 16 17 18 19 20 21 22 23 24 25 26 27 28 29 30 31 32 33 34 35 36 37 38 39 40 41 42 43 44 45 46 47 48 49 50

000
ASUS45 KPSR 171800
RWRAZ

ARIZONA REGIONAL HOURLY WEATHER ROUNDUP
NATIONAL WEATHER SERVICE PHOENIX AZ
1100 AM MST FRI APR 17 2015

NOTE: FAIR INDICATES FEW OR NO CLOUDS BELOW 12,000 FEET WITH NO
SIGNIFICANT WEATHER AND/OR OBSTRUCTIONS TO VISIBILITY.

AZZ001>003-036-171900-
NORTHWEST ARIZONA

CITY           SKY/WX    TMP DP  RH WIND       PRES   REMARKS
KINGMAN        SUNNY     64  24  21 NW8G20    30.10F
6HR MIN TEMP:  36; 6HR MAX TEMP:  65;

$$

AZZ004>008-015-016-018-171900-
NORTH CENTRAL ARIZONA

CITY           SKY/WX    TMP DP  RH WIND       PRES   REMARKS
GRAND CANYON   CLOUDY    41  31  67 W12G17    30.11S
6HR MIN TEMP:  21; 6HR MAX TEMP:  41;

WILLIAMS       SUNNY     43  30  61 N16       30.19S
PRESCOTT       SUNNY     53  18  25 NW9G17    30.11F
6HR MIN TEMP:  31; 6HR MAX TEMP:  53;

FLAGSTAFF      NOT AVBL
PAYSON         SUNNY     54  21  28 W9G15     30.10S
PAGE           CLOUDY    50  29  44 VRB3      30.08F
6HR MIN TEMP:  41; 6HR MAX TEMP:  50;

$$

AZZ009>014-017-171900-
NORTHEAST ARIZONA

CITY           SKY/WX    TMP DP  RH WIND       PRES   REMARKS
WINSLOW        NOT AVBL
SAINT JOHNS    MOSUNNY   47  22  37 W9G20     30.09R
6HR MIN TEMP:  32; 6HR MAX TEMP:  47;

WINDOW ROCK    CLOUDY    43  13  29 W9G18     30.07S
6HR MIN TEMP:  18; 6HR MAX TEMP:  43;

SHOW LOW       SUNNY     41  18  38 W7        30.11F
$$

AZZ023-171900-
GREATER PHOENIX AREA

CITY           SKY/WX    TMP DP  RH WIND       PRES   REMARKS
PHOENIX        MOSUNNY   72  24  16 VRB5      30.03F
6HR MIN TEMP:  55; 6HR MAX TEMP:  72;

GLENDALE       MOSUNNY   72  23  16 VRB5      30.05F
DEER VALLEY    SUNNY     70  11  10 CALM      30.03F
6HR MIN TEMP:  53; 6HR MAX TEMP:  71;

SCOTTSDALE     SUNNY     71  15  11 W7        30.05F
6HR MIN TEMP:  51; 6HR MAX TEMP:  71;

MESA-GATEWAY   MOSUNNY   68  19  15 W5        30.06F
CHANDLER       SUNNY     68  25  19 SW7       30.05F
$$

AZZ027-028-171900-
SOUTHWEST MARICOPA COUNTY AND PINAL COUNTY

CITY           SKY/WX    TMP DP  RH WIND       PRES   REMARKS
CASA GRANDE    SUNNY     68  21  17 CALM      30.05F
6HR MIN TEMP:  43; 6HR MAX TEMP:  70;

$$

AZZ503-504-507>509-171900-
SOUTHEAST ARIZONA

CITY           SKY/WX    TMP DP  RH WIND       PRES   REMARKS
TUCSON         SUNNY     69  11  10 NW8       30.09F
6HR MIN TEMP:  44; 6HR MAX TEMP:  69;

RYAN FIELD       N/A     70  18  13 NW6G17    30.09S
NOGALES        SUNNY     66  15  14 NW9       30.08F
6HR MIN TEMP:  34; 6HR MAX TEMP:  67;

SIERRA VISTA   SUNNY     63  10  13 N13G18    30.11S
SAFFORD        SUNNY     64  11  12 W6        30.05F
6HR MIN TEMP:  35; 6HR MAX TEMP:  64;

$$

AZZ020-021-025-026-031-171900-
SOUTHWEST ARIZONA

CITY           SKY/WX    TMP DP  RH WIND       PRES   REMARKS
YUMA           SUNNY     79  20  11 N6        30.04S
6HR MIN TEMP:  57; 6HR MAX TEMP:  79;

$$

CAZ031-033-041-043-047-048-061-171900-
SOUTHERN CALIFORNIA

CITY           SKY/WX    TMP DP  RH WIND       PRES   REMARKS
DOWNTOWN L.A.  SUNNY     79  28  15 VRB3      30.03S
6HR MIN TEMP:  56; 6HR MAX TEMP:  79;

L.A. AIRPORT   SUNNY     73  43  33 W13       30.05S
6HR MIN TEMP:  56; 6HR MAX TEMP:  74;

SAN DIEGO      SUNNY     74  29  19 W8        30.04S
6HR MIN TEMP:  58; 6HR MAX TEMP:  75;

BURBANK        SUNNY     74  24  15 CALM      30.05S
6HR MIN TEMP:  53; 6HR MAX TEMP:  74;

ONTARIO        SUNNY     73  18  12 CALM      30.05S
6HR MIN TEMP:  53; 6HR MAX TEMP:  74;

RIVERSIDE      SUNNY     75  16  10 VRB3      30.05S
6HR MIN TEMP:  50; 6HR MAX TEMP:  75;

PALM SPRINGS   SUNNY     80  14   8 VRB3      30.03F
6HR MIN TEMP:  60; 6HR MAX TEMP:  81;

EL CENTRO NAS  SUNNY     79  22  12 NW5       30.02S
6HR MIN TEMP:  51; 6HR MAX TEMP:  80;

IMPERIAL       SUNNY     78  29  16 N7        30.02S
6HR MIN TEMP:  49; 6HR MAX TEMP:  78;

BLYTHE         SUNNY     76  19  11 N6        30.05S
6HR MIN TEMP:  49; 6HR MAX TEMP:  76;

$$

NVZ020-UTZ003-171900-
SOUTHERN NEVADA-UTAH

CITY           SKY/WX    TMP DP  RH WIND       PRES   REMARKS
LAS VEGAS      NOT AVBL
SALT LAKE CITY PTSUNNY   54  33  45 N13       30.12S
6HR MIN TEMP:  39; 6HR MAX TEMP:  55;

$$

NMZ009-TXZ055-171900-
NEW MEXICO-WEST TEXAS

CITY           SKY/WX    TMP DP  RH WIND       PRES   REMARKS
ALBUQUERQUE    PTSUNNY   50  11  20 VRB6      30.07F
6HR MIN TEMP:  30; 6HR MAX TEMP:  50;

EL PASO        MOSUNNY   63   1   8 W12       30.06F
6HR MIN TEMP:  44; 6HR MAX TEMP:  64;

$$


........................KEY........................
SKY/WX - SKY CONDITION/WEATHER
TMP    - TEMPERATURE IN FAHRENHEIT
DP     - DEW POINT IN FAHRENHEIT
RH     - RELATIVE HUMIDITY IN PERCENT
WIND   - DIRECTION AND SPEED IN MILES PER HOUR (MPH)
VRB    - VARIABLE WIND DIRECTION
PRES   - MEAN SEA LEVEL PRESSURE IN INCHES OF MERCURY
         F - FALLING PRESSURE   R - RISING PRESSURE
         S - STEADY PRESSURE
VSB    - VISIBILITY IN MILES
HX     - HEAT INDEX IN FAHRENHEIT
WCI    - WIND CHILL INDEX IN FAHRENHEIT
TC     - TEMPERATURE IN CELSIUS WHICH IS ALSO KNOWN AS
         TEMPERATURE IN CENTIGRADE
AFB    - AIR FORCE BASE
         LUKE AFB IS LUKE AIR FORCE BASE
         DAVIS-MONTHAN IS DAVIS-MONTHAN AIR FORCE BASE
NAS    - NAVAL AIR STATION
         EL CENTRO NAS IS EL CENTRO NAVAL AIR STATION
N/A    - NOT AVAILABLE



USA.gov is the U.S. government's official web portal to all federal, state and local government web resources and services.